GW0326 Weather Reports


Display with metric or nautical units.
time (UTC)temp
F
wind
direction
speed
MPH
gust
MPH
rain 1hr
in
rain 24hr
in
rain mn
in
humidity
%
barometer
mb
20260831203546 73 0 2.0 6.0 0.00 0.05 0.00 35 1027.2
20260831203104 74 0 1.0 6.0 0.00 0.05 0.00 34 1027.2
20260831202545 73 0 0.0 10.0 0.00 0.05 0.00 34 1027.3
20260831202048 73 0 2.0 10.0 0.00 0.05 0.00 34 1027.4
20260831201556 74 0 0.0 9.0 0.00 0.05 0.00 33 1027.4
20260831201048 74 0 1.0 9.0 0.00 0.05 0.00 33 1027.4
20260831200546 74 51 3.0 16.0 0.00 0.05 0.00 32 1027.5
20260831200108 74 0 3.0 16.0 0.00 0.05 0.00 33 1027.5
20260831195546 74 37 1.0 9.0 0.00 0.05 0.00 33 1027.5
20260831195046 75 51 2.0 9.0 0.00 0.05 0.00 33 1027.5
20260831194614 74 42 1.0 8.0 0.00 0.05 0.00 34 1027.6
20260831194047 73 0 1.0 6.0 0.00 0.05 0.00 36 1027.6
20260831193544 73 42 0.0 7.0 0.00 0.05 0.00 36 1027.7
20260831193056 73 0 2.0 7.0 0.00 0.05 0.00 37 1027.7
20260831192547 72 0 0.0 9.0 0.00 0.05 0.00 36 1027.8
20260831192047 73 30 0.0 9.0 0.00 0.05 0.00 36 1027.8
20260831191555 73 0 0.0 5.0 0.00 0.05 0.00 37 1027.8
20260831191052 74 0 0.0 5.0 0.00 0.05 0.00 35 1027.9
20260831190547 74 24 0.0 5.0 0.00 0.05 0.00 36 1027.9
20260831190108 74 74 1.0 7.0 0.00 0.05 0.00 36 1027.9
20260831185547 73 0 0.0 13.0 0.00 0.05 0.00 37 1028.0
20260831185046 73 44 3.0 13.0 0.00 0.05 0.00 37 1028.1
20260831184605 73 49 1.0 6.0 0.00 0.05 0.00 37 1028.1
20260831184045 72 57 0.0 10.0 0.00 0.05 0.00 38 1028.2
20260831183544 72 0 1.0 10.0 0.00 0.05 0.00 40 1028.2
20260831183100 71 46 3.0 12.0 0.00 0.05 0.00 40 1028.2
20260831182544 71 61 7.0 12.0 0.00 0.05 0.00 40 1028.3
20260831182044 70 0 1.0 6.0 0.00 0.05 0.00 41 1028.2
20260831181559 70 59 0.0 3.0 0.00 0.05 0.00 41 1028.3
20260831181047 70 0 0.0 6.0 0.00 0.05 0.00 41 1028.4
20260831180551 70 0 0.0 6.0 0.00 0.05 0.00 41 1028.4
20260831180100 71 0 1.0 5.0 0.00 0.05 0.00 40 1028.4
20260831175548 71 59 0.0 5.0 0.00 0.05 0.00 41 1028.4
20260831175046 71 74 0.0 5.0 0.00 0.05 0.00 40 1028.4
20260831174600 71 0 0.0 6.0 0.00 0.05 0.00 42 1028.4
20260831174047 71 0 0.0 6.0 0.00 0.05 0.00 40 1028.4
20260831173548 71 0 0.0 5.0 0.00 0.05 0.00 40 1028.4
20260831173059 71 0 0.0 6.0 0.00 0.05 0.00 40 1028.4
20260831172547 71 0 0.0 6.0 0.00 0.05 0.00 41 1028.4
20260831172050 71 0 0.0 6.0 0.00 0.05 0.00 40 1028.4
20260831171605 71 0 0.0 0.0 0.00 0.05 0.00 40 1028.4
20260831171045 71 0 0.0 5.0 0.00 0.05 0.00 41 1028.4
20260831170545 71 0 0.0 5.0 0.00 0.05 0.00 40 1028.4
20260831165544 71 0 0.0 0.0 0.00 0.05 0.00 40 1028.4
20260831165045 71 0 0.0 0.0 0.00 0.05 0.00 39 1028.4
20260831164559 71 0 0.0 3.0 0.00 0.05 0.00 38 1028.3
20260831164043 71 0 0.0 3.0 0.00 0.05 0.00 39 1028.3
20260831163545 70 0 0.0 2.0 0.00 0.05 0.00 40 1028.3
20260831163103 70 0 0.0 3.0 0.00 0.05 0.00 40 1028.3
20260831162549 70 0 0.0 3.0 0.00 0.05 0.00 39 1028.3
20260831162046 70 0 0.0 3.0 0.00 0.05 0.00 40 1028.2
20260831161608 69 0 0.0 0.0 0.00 0.05 0.00 40 1028.2
20260831161045 69 0 0.0 2.0 0.00 0.05 0.00 40 1028.2
20260831160546 69 0 0.0 2.0 0.00 0.05 0.00 40 1028.1
20260831160057 69 0 0.0 1.0 0.00 0.05 0.00 41 1028.1
20260831155549 69 0 0.0 0.0 0.00 0.05 0.00 41 1028.0
20260831155046 69 0 0.0 2.0 0.00 0.05 0.00 41 1028.0
20260831154629 69 0 0.0 2.0 0.00 0.05 0.00 41 1028.0
20260831154048 68 0 0.0 2.0 0.00 0.05 0.00 41 1028.1
20260831153545 68 0 0.0 1.0 0.00 0.05 0.00 41 1027.9
20260831153059 68 0 0.0 1.0 0.00 0.05 0.00 42 1027.9
20260831152545 67 0 0.0 0.0 0.00 0.05 0.00 45 1027.9
20260831152045 67 0 0.0 0.0 0.00 0.05 0.00 47 1028.0
20260831151555 66 0 0.0 1.0 0.00 0.05 0.00 48 1028.0
20260831151048 66 0 0.0 2.0 0.00 0.05 0.00 48 1028.0
20260831150544 65 0 0.0 2.0 0.00 0.05 0.00 48 1028.0
20260831150053 65 0 0.0 1.0 0.00 0.05 0.00 49 1028.0
20260831145544 64 0 0.0 2.0 0.00 0.05 0.00 49 1027.9
20260831145049 64 0 0.0 4.0 0.00 0.05 0.00 50 1028.0
20260831144604 64 0 0.0 4.0 0.00 0.05 0.00 51 1028.1
20260831144044 64 0 0.0 4.0 0.00 0.05 0.00 51 1028.1
20260831143547 63 0 0.0 1.0 0.00 0.05 0.00 52 1028.0
20260831143055 63 0 0.0 1.0 0.00 0.05 0.00 52 1028.0
20260831142548 63 0 0.0 4.0 0.00 0.05 0.00 54 1027.9
20260831142044 62 0 0.0 4.0 0.00 0.05 0.00 54 1028.0
20260831141558 62 0 0.0 4.0 0.00 0.05 0.00 54 1027.8
20260831141049 62 0 0.0 0.0 0.00 0.05 0.00 54 1027.8
20260831140547 61 0 0.0 1.0 0.00 0.05 0.00 54 1027.7
20260831135544 61 0 0.0 1.0 0.00 0.05 0.00 53 1027.6
20260831135048 61 0 0.0 0.0 0.00 0.05 0.00 53 1027.4
20260831134604 60 0 0.0 0.0 0.00 0.05 0.00 54 1027.4
20260831134047 60 0 0.0 0.0 0.00 0.05 0.00 54 1027.4
20260831133552 60 0 0.0 0.0 0.00 0.05 0.00 55 1027.3
20260831133103 60 0 0.0 0.0 0.00 0.05 0.00 55 1027.3
20260831132546 60 0 0.0 0.0 0.00 0.05 0.00 55 1027.2
20260831132046 59 0 0.0 1.0 0.00 0.05 0.00 55 1027.2
20260831131555 59 0 0.0 1.0 0.00 0.05 0.00 55 1027.1
20260831131046 59 0 0.0 1.0 0.00 0.05 0.00 55 1027.1
20260831130547 59 0 0.0 2.0 0.00 0.05 0.00 56 1027.0
20260831130101 59 0 0.0 2.0 0.00 0.05 0.00 56 1027.0
20260831125545 59 0 0.0 2.0 0.00 0.05 0.00 56 1027.0
20260831125047 58 0 0.0 0.0 0.00 0.05 0.00 57 1026.8
20260831124559 58 0 0.0 0.0 0.00 0.05 0.00 58 1026.8
20260831124048 58 0 0.0 0.0 0.00 0.05 0.00 57 1026.7
20260831123547 58 0 0.0 3.0 0.00 0.05 0.00 57 1026.7
20260831123057 58 0 0.0 3.0 0.00 0.05 0.00 57 1026.8
20260831122548 58 0 0.0 0.0 0.00 0.05 0.00 58 1026.8
20260831122048 58 0 0.0 0.0 0.00 0.05 0.00 58 1026.8
20260831121557 58 0 0.0 1.0 0.00 0.05 0.00 58 1026.7
20260831121046 58 0 0.0 1.0 0.00 0.05 0.00 58 1026.6
20260831120545 58 0 0.0 0.0 0.00 0.05 0.00 58 1026.6
20260831120108 58 0 0.0 0.0 0.00 0.05 0.00 59 1026.5
20260831115546 58 0 0.0 2.0 0.00 0.05 0.00 58 1026.5
20260831115047 58 0 0.0 2.0 0.00 0.05 0.00 58 1026.5
20260831114557 58 0 0.0 0.0 0.00 0.05 0.00 59 1026.4
20260831114047 57 0 0.0 0.0 0.00 0.05 0.00 59 1026.4
20260831113547 57 0 0.0 0.0 0.00 0.05 0.00 59 1026.6
20260831113106 57 0 0.0 0.0 0.00 0.05 0.00 60 1026.5
20260831112546 58 0 0.0 0.0 0.00 0.05 0.00 59 1026.4
20260831112047 58 0 0.0 0.0 0.00 0.05 0.00 60 1026.4
20260831111608 57 0 0.0 0.0 0.00 0.05 0.00 59 1026.4
20260831111049 57 0 0.0 6.0 0.00 0.05 0.00 60 1026.3
20260831110551 56 0 0.0 6.0 0.00 0.05 0.00 60 1026.2
20260831110104 56 0 0.0 2.0 0.00 0.05 0.00 62 1026.3
20260831105550 56 0 0.0 1.0 0.00 0.05 0.00 63 1026.4
20260831105048 55 0 0.0 0.0 0.00 0.05 0.00 64 1026.3
20260831104603 55 0 0.0 0.0 0.00 0.05 0.00 64 1026.2
20260831104044 55 0 0.0 0.0 0.00 0.05 0.00 65 1026.2
20260831103547 54 0 0.0 0.0 0.00 0.05 0.00 66 1026.2
20260831103104 54 0 0.0 0.0 0.00 0.05 0.00 66 1026.1
20260831102546 53 0 0.0 0.0 0.00 0.05 0.00 68 1026.0
20260831102045 53 0 0.0 0.0 0.00 0.05 0.00 69 1026.0
20260831101557 53 0 0.0 0.0 0.00 0.05 0.00 69 1026.1
20260831101045 53 0 0.0 0.0 0.00 0.05 0.00 69 1026.0
20260831100547 53 0 0.0 0.0 0.00 0.05 0.00 70 1026.0
20260831100108 53 0 0.0 0.0 0.00 0.05 0.00 69 1025.9
20260831095548 53 0 0.0 0.0 0.00 0.05 0.00 69 1025.8
20260831095048 53 0 0.0 0.0 0.00 0.05 0.00 69 1025.7
20260831094604 54 0 0.0 0.0 0.00 0.05 0.00 67 1025.7
20260831094046 54 0 0.0 0.0 0.00 0.05 0.00 67 1025.6
20260831093546 55 0 0.0 0.0 0.00 0.05 0.00 67 1025.7
20260831093057 55 0 0.0 0.0 0.00 0.05 0.00 65 1025.6
20260831092546 55 0 0.0 0.0 0.00 0.05 0.00 65 1025.5
20260831092044 55 0 0.0 0.0 0.00 0.05 0.00 63 1025.5
20260831091600 55 0 0.0 0.0 0.00 0.05 0.00 63 1025.5
20260831091044 56 0 0.0 0.0 0.00 0.05 0.00 63 1025.6
20260831090544 56 0 0.0 0.0 0.00 0.05 0.00 64 1025.5
20260831090047 56 0 0.0 0.0 0.00 0.05 0.00 64 1025.4
20260831085545 56 0 0.0 0.0 0.00 0.05 0.00 63 1025.4
20260831085044 55 0 0.0 0.0 0.00 0.05 0.00 63 1025.5
20260831084609 55 0 0.0 0.0 0.00 0.05 0.00 64 1025.6
20260831084045 56 0 0.0 0.0 0.00 0.05 0.00 64 1025.5
20260831083543 56 0 0.0 0.0 0.00 0.05 0.00 63 1025.5
20260831083054 56 0 0.0 0.0 0.00 0.05 0.00 63 1025.7
20260831082544 56 0 0.0 0.0 0.00 0.05 0.00 63 1025.7
20260831082045 56 0 0.0 0.0 0.00 0.05 0.00 62 1025.7
20260831081555 56 0 0.0 0.0 0.00 0.05 0.00 62 1025.7
20260831081044 57 0 0.0 0.0 0.00 0.05 0.00 61 1025.7
20260831080541 57 0 0.0 0.0 0.00 0.05 0.00 61 1025.7
20260831080135 57 0 0.0 0.0 0.00 0.05 0.00 61 1025.7
20260831075543 57 0 0.0 0.0 0.00 0.05 0.00 60 1025.8
20260831075043 57 0 0.0 0.0 0.00 0.05 0.00 61 1025.9
20260831074601 57 0 0.0 0.0 0.00 0.05 0.00 61 1025.9
20260831074045 57 0 0.0 0.0 0.00 0.05 0.00 62 1026.0
20260831073547 57 0 0.0 0.0 0.00 0.05 0.00 62 1026.2
20260831073113 57 0 0.0 0.0 0.00 0.05 0.00 61 1026.2
20260831072544 57 0 0.0 0.0 0.00 0.05 0.00 63 1026.4
20260831072044 56 0 0.0 0.0 0.00 0.05 0.00 63 1026.6
20260831071602 56 0 0.0 0.0 0.00 0.05 0.00 64 1026.5
20260831071044 57 0 0.0 0.0 0.00 0.05 0.00 64 1026.7
20260831070549 57 0 0.0 0.0 0.00 0.05 0.00 64 1026.6
20260831070100 57 0 0.0 0.0 0.00 0.05 0.00 63 1026.7
20260831065544 57 0 0.0 0.0 0.00 0.05 0.00 63 1026.7
20260831065045 57 0 0.0 0.0 0.00 0.05 0.00 64 1026.7
20260831064552 58 0 0.0 0.0 0.00 0.05 0.00 63 1026.7
20260831064043 58 0 0.0 0.0 0.00 0.05 0.00 63 1026.7
20260831063547 58 0 0.0 0.0 0.00 0.05 0.00 62 1026.6
20260831063101 58 0 0.0 0.0 0.00 0.05 0.00 62 1026.5
20260831062544 58 0 0.0 0.0 0.00 0.05 0.00 63 1026.4
20260831062045 58 0 0.0 7.0 0.00 0.05 0.00 63 1026.2
20260831061558 58 0 0.0 7.0 0.00 0.05 0.00 63 1026.4
20260831061044 58 260 0.0 5.0 0.00 0.05 0.00 64 1026.4
20260831060543 58 0 0.0 5.0 0.00 0.05 0.00 64 1026.4
20260831060100 57 0 0.0 7.0 0.00 0.05 0.00 64 1026.3
20260831055543 57 0 2.0 7.0 0.00 0.05 0.05 64 1026.5
20260831055044 57 0 0.0 4.0 0.00 0.05 0.05 64 1026.4
20260831054553 57 0 0.0 5.0 0.00 0.05 0.05 64 1026.4
20260831054046 58 0 0.0 8.0 0.00 0.05 0.05 64 1026.6
20260831053544 58 0 0.0 8.0 0.00 0.05 0.05 64 1026.7
20260831053102 58 211 0.0 10.0 0.00 0.05 0.05 64 1026.8
20260831052544 58 0 1.0 10.0 0.00 0.05 0.05 63 1026.7
20260831052047 58 0 1.0 11.0 0.00 0.05 0.05 63 1026.8
20260831051558 58 290 3.0 11.0 0.00 0.05 0.05 63 1027.2
20260831051044 59 271 1.0 11.0 0.00 0.05 0.05 63 1027.7
20260831050543 59 265 0.0 17.0 0.00 0.05 0.05 63 1027.8
20260831050101 59 300 3.0 17.0 0.00 0.05 0.05 62 1027.8
20260831045543 60 287 3.0 14.0 0.00 0.05 0.05 61 1028.1
20260831045043 60 0 3.0 14.0 0.00 0.05 0.05 61 1028.2
20260831044606 61 0 3.0 14.0 0.00 0.05 0.05 60 1028.4
20260831044042 61 213 3.0 14.0 0.00 0.05 0.05 59 1028.4
20260831043543 61 182 2.0 13.0 0.00 0.05 0.05 59 1028.3
20260831043059 61 238 2.0 9.0 0.00 0.05 0.05 59 1028.3
20260831042544 61 0 1.0 9.0 0.00 0.05 0.05 59 1028.1
20260831042047 61 229 0.0 11.0 0.00 0.05 0.05 59 1028.1
20260831041608 61 306 1.0 11.0 0.00 0.05 0.05 59 1027.9
20260831041046 61 0 0.0 9.0 0.00 0.05 0.05 60 1027.7
20260831040545 61 0 0.0 6.0 0.00 0.05 0.05 60 1027.5
20260831040058 61 0 0.0 7.0 0.00 0.05 0.05 60 1027.1
20260831035544 60 0 0.0 7.0 0.00 0.05 0.05 61 1027.1
20260831035044 60 0 0.0 0.0 0.00 0.05 0.05 62 1027.0
20260831034604 60 0 0.0 2.0 0.00 0.05 0.05 62 1026.7
20260831034044 60 0 0.0 2.0 0.00 0.05 0.05 62 1026.8
20260831033544 60 0 0.0 2.0 0.00 0.05 0.05 62 1026.7
20260831033059 60 0 0.0 1.0 0.00 0.05 0.05 62 1026.7
20260831032546 60 0 0.0 1.0 0.00 0.05 0.05 61 1026.7
20260831032049 61 0 0.0 1.0 0.00 0.05 0.05 61 1026.7
20260831031555 61 0 0.0 0.0 0.00 0.05 0.05 61 1026.7
20260831031046 61 0 0.0 0.0 0.00 0.05 0.05 61 1026.7
20260831030547 61 0 0.0 0.0 0.00 0.05 0.05 60 1026.6
20260831025546 62 0 0.0 0.0 0.00 0.05 0.05 58 1026.5
20260831025046 62 0 0.0 3.0 0.00 0.05 0.05 57 1026.3
20260831024606 63 0 0.0 3.0 0.00 0.05 0.05 57 1026.2
20260831024047 63 0 0.0 4.0 0.00 0.05 0.05 56 1026.3
20260831023547 63 0 0.0 7.0 0.00 0.05 0.05 56 1026.3
20260831023100 63 0 0.0 7.0 0.00 0.05 0.05 55 1026.3
20260831022550 63 0 0.0 8.0 0.00 0.05 0.05 54 1026.2
20260831022050 64 0 0.0 8.0 0.00 0.05 0.05 54 1026.2
20260831021601 64 0 0.0 9.0 0.00 0.05 0.05 53 1026.1
20260831021047 64 256 0.0 9.0 0.00 0.05 0.05 53 1025.9
20260831020547 64 0 0.0 7.0 0.00 0.05 0.05 53 1025.8
20260831020104 64 272 0.0 8.0 0.00 0.05 0.05 53 1025.7
20260831015546 64 0 0.0 8.0 0.00 0.05 0.05 52 1025.7
20260831015045 64 0 0.0 9.0 0.00 0.05 0.05 52 1025.8
20260831014558 64 0 2.0 12.0 0.00 0.05 0.05 52 1025.9
20260831014045 64 251 1.0 12.0 0.00 0.05 0.05 52 1025.7
20260831013545 64 0 2.0 12.0 0.00 0.05 0.05 52 1025.7
20260831013111 65 257 0.0 5.0 0.00 0.05 0.05 51 1025.7
20260831012545 65 0 0.0 10.0 0.00 0.05 0.05 51 1025.7
20260831012047 65 0 1.0 10.0 0.00 0.05 0.05 50 1025.8
20260831011600 65 280 0.0 8.0 0.00 0.05 0.05 50 1025.8
20260831011045 65 0 1.0 6.0 0.00 0.05 0.05 49 1025.6
20260831010545 65 302 1.0 8.0 0.00 0.05 0.05 49 1025.7
20260831010120 65 278 2.0 8.0 0.00 0.05 0.05 49 1025.8
20260831005546 66 240 0.0 8.0 0.00 0.05 0.05 49 1025.8
20260831005046 66 191 0.0 7.0 0.00 0.05 0.05 48 1025.8
20260831004606 66 261 0.0 7.0 0.00 0.05 0.05 49 1025.8
20260831004047 66 239 0.0 10.0 0.00 0.05 0.05 48 1025.7
20260831003545 66 0 1.0 10.0 0.00 0.05 0.05 47 1025.7
20260831003108 66 0 2.0 9.0 0.00 0.05 0.05 48 1025.7
20260831002545 67 269 2.0 11.0 0.00 0.05 0.05 48 1025.9
20260831002046 67 0 2.0 11.0 0.00 0.05 0.05 47 1026.0
20260831001558 67 241 1.0 11.0 0.00 0.05 0.05 46 1026.0
20260831001045 68 0 2.0 11.0 0.00 0.05 0.05 47 1025.9
20260831000545 68 0 2.0 9.0 0.00 0.05 0.05 46 1025.9
20260831000103 68 0 1.0 9.0 0.00 0.05 0.05 47 1026.1
20260830235545 69 0 0.0 8.0 0.00 0.05 0.05 46 1026.0
20260830235045 69 0 0.0 4.0 0.00 0.05 0.05 46 1026.0
20260830234600 69 0 0.0 6.0 0.00 0.05 0.05 46 1025.9
20260830234045 69 0 0.0 6.0 0.00 0.05 0.05 46 1025.8
20260830233545 69 0 1.0 8.0 0.00 0.05 0.05 47 1025.8
20260830233056 69 0 1.0 8.0 0.00 0.05 0.05 47 1025.7
20260830232545 69 0 0.0 10.0 0.00 0.05 0.05 48 1025.7
20260830232045 69 0 0.0 10.0 0.00 0.05 0.05 47 1025.6
20260830231558 69 257 1.0 10.0 0.00 0.05 0.05 48 1025.5
20260830231044 68 0 3.0 9.0 0.00 0.05 0.05 48 1025.3
20260830230545 68 173 2.0 7.0 0.00 0.05 0.05 48 1025.2
20260830230052 68 293 0.0 9.0 0.00 0.05 0.05 49 1025.3
20260830225545 68 0 1.0 9.0 0.00 0.05 0.05 48 1025.3
20260830225049 68 215 3.0 11.0 0.00 0.05 0.05 49 1025.2
20260830224559 68 0 2.0 11.0 0.00 0.05 0.05 49 1025.1
20260830224046 68 305 4.0 11.0 0.00 0.05 0.05 48 1025.2
20260830223546 68 280 1.0 11.0 0.00 0.05 0.05 48 1025.1
20260830223055 68 309 2.0 11.0 0.00 0.05 0.05 49 1025.1
20260830222550 67 0 2.0 8.0 0.00 0.05 0.05 50 1024.9
20260830222046 67 0 2.0 10.0 0.00 0.05 0.05 50 1025.2
20260830221555 67 0 1.0 10.0 0.00 0.05 0.05 51 1025.0
20260830221046 66 219 1.0 10.0 0.00 0.05 0.05 54 1025.3
20260830220547 66 234 2.0 7.0 0.00 0.05 0.05 54 1025.3
20260830220103 66 0 1.0 11.0 0.00 0.05 0.05 54 1025.3
20260830215549 65 238 0.0 12.0 0.00 0.05 0.05 58 1025.4
20260830215050 64 252 2.0 12.0 0.00 0.05 0.05 57 1025.3
20260830214557 65 0 5.0 13.0 0.00 0.05 0.05 57 1025.5
20260830214046 64 360 3.0 13.0 0.00 0.05 0.05 59 1025.8
20260830213548 63 313 2.0 12.0 0.00 0.05 0.05 61 1025.9
20260830213101 62 0 3.0 12.0 0.00 0.05 0.05 63 1025.9
20260830212548 62 200 1.0 14.0 0.00 0.05 0.05 64 1026.2
20260830212045 61 0 2.0 23.0 0.00 0.05 0.05 64 1026.4
20260830211600 61 0 4.0 23.0 0.00 0.05 0.05 63 1026.4
20260830211045 62 226 4.0 17.0 0.03 0.05 0.05 63 1026.5
20260830210545 62 227 6.0 17.0 0.05 0.05 0.05 64 1026.4
20260830210059 60 249 5.0 13.0 0.05 0.05 0.05 70 1026.3
20260830205544 60 211 2.0 11.0 0.05 0.06 0.05 74 1026.4
20260830205045 59 234 3.0 12.0 0.05 0.06 0.05 83 1026.5
20260830204555 58 237 2.0 12.0 0.05 0.06 0.05 87 1026.5
20260830204047 57 203 0.0 7.0 0.05 0.06 0.05 89 1026.5